Regional Weather Roundup
Issued by NWS

Home | Current Version | Previous Version | Text Only | Print | Product List | Glossary On
Versions: 1 2 3 4 5 6 7 8 9 10 11 12 13 14 15 16 17 18 19 20 21 22 23 24 25 26 27 28 29 30 31 32 33 34 35 36 37 38 39 40 41 42 43 44 45 46 47 48 49 50
000
ASUS44 KFWD 191003
RWRTX
NORTH TEXAS HOURLY WEATHER ROUNDUP
NATIONAL WEATHER SERVICE FORT WORTH TX
400 AM CST THU JAN 19 2017

NOTE: "FAIR" INDICATES FEW OR NO CLOUDS BELOW 12,000 FEET WITH NO
SIGNIFICANT WEATHER AND/OR OBSTRUCTIONS TO VISIBILITY.

TXZ118-119-191100-
DALLAS/FORT WORTH METROPLEX

CITY           SKY/WX    TMP DP  RH WIND       PRES   REMARKS
DFW AIRPORT    FOG       48  48 100 SW8       29.89F VSB 1/8
DALLAS LOVE    CLOUDY    50  48  93 SW7       29.91F
FTW MEACHAM    CLOUDY    48  46  93 S5        29.89F FOG
DAL-EXECUTIVE  CLOUDY    49  48  97 SW6       29.90F FOG
FTW-ALLIANCE   FOG       46  45  96 SW3       29.89F VSB 1/2
FTW-NAS-JRB    CLOUDY    48  47  96 S3          N/A
FTW-SPINKS     CLOUDY    48  47  97 S6        29.92F FOG
ARLINGTON      CLOUDY    47  46  97 S5        29.91F FOG
GRAND PRAIRIE  CLOUDY    47  47 100 SW6       29.93F
ADDISON        CLOUDY   N/A N/A N/A CALM      29.92F
MESQUITE       CLOUDY    50  50  99 CALM      29.92S
LANCASTER      CLOUDY    49  48  95 SW3       29.92F
$$

TXZ091>094-102>105-117-120-121-131>134-191100-
NORTH CENTRAL TEXAS

CITY           SKY/WX    TMP DP  RH WIND       PRES   REMARKS
SHRMAN/DENISON CLOUDY   N/A N/A N/A S5        29.90F HAZE
GAINESVILLE    FOG       40  40  98 CALM      29.90F VSB 1/4
BOWIE          FOG       44  44 100 SE5       29.85F VSB 1/4
BRIDGEPORT     PTCLDY    43  43 100 SE3       29.88F FOG
DECATUR        CLEAR     61  61 100 S6        29.87F
DENTON         FOG       43  43 100 SE3       29.89F VSB 1/4
MCKINNEY       CLOUDY    50  50 100 S3        29.90F FOG
BONHAM         CLOUDY    48  48 100 CALM      29.90F FOG
GREENVILLE     CLOUDY    50  50 100 CALM      29.91F FOG
ROCKWALL       CLOUDY    50  50 100 CALM      29.91F FOG
TERRELL        CLOUDY    51  49  92 CALM      29.92F FOG
WAXAHACHIE     CLOUDY    48  48 100 W5        29.93F
CLEBURNE       CLOUDY    48  48 100 S7        29.92F FOG
GRANBURY       CLOUDY    51  48  91 CALM      29.91F
$$

TXZ083>090-098>101-113>116-127>130-139>142-154-155-191100-
WESTERN NORTH TEXAS

CITY           SKY/WX    TMP DP  RH WIND       PRES   REMARKS
WICHITA FALLS  CLEAR     40  40 100 S9        29.83F WCI  34
WF-KICKAPOO    CLEAR     41  41 100 SE7       29.85F WCI  37
VERNON         CLEAR     43  39  86 S10       29.80F WCI  38
ABILENE        CLEAR     44  43  96 S12       29.87F WCI  38
ABILENE-DYESS  CLEAR     40  35  82 S7        29.85F WCI  35
GRAHAM         CLEAR     43  43 100 CALM      29.84F
BRECKENRIDGE   CLEAR     44  43  99 S5        29.85F
CISCO          CLEAR     43  43 100 S9        29.87F WCI  37
RANGER         PTCLDY    45  45 100 S8        29.87F
MINERAL WELLS  FOG       42  41  96 SE9       29.86F VSB 1/4 WCI  37
STEPHENVILLE   CLOUDY    49  46  90 CALM      29.91F
COMANCHE       CLOUDY    47  47 100 S10       29.90F
BROWNWOOD      CLOUDY    48  48 100 S9        29.90F
COLEMAN        SNOW      43  43 100 S6        29.90F VSB 1/4 WCI  39
$$

TXZ143>147-156>162-174-175-191100-
CENTRAL TEXAS

CITY           SKY/WX    TMP DP  RH WIND       PRES   REMARKS
WACO           CLOUDY    51  50  96 W3        29.92F
WACO-MCGREGOR  CLOUDY    51  50  96 SW5       29.92F
HILLSBORO      CLOUDY    50  49  97 CALM      29.93F
CORSICANA      CLOUDY    52  51  97 SW3       29.94F FOG
MEXIA          CLOUDY    50  49  97 CALM      29.92F
HEARNE         CLOUDY    51  51 100 CALM      29.95F FOG
CAMERON        CLOUDY    52  51  95 CALM      29.93F
TEMPLE         CLOUDY    51  50  96 SW8       29.93F
KILLEEN        CLOUDY    49  48  98 W3        29.90F
KILLEEN-SKYLRK CLOUDY    50  49  96 W5        29.91F
HAMILTON       CLOUDY    50  50 100 SW9       29.91F
LAMPASAS       CLOUDY    50  49  95 W6        29.90F
$$

TXZ095>097-106>112-122>126-135>138-148>153-164>167-191100-
EAST TEXAS

CITY           SKY/WX    TMP DP  RH WIND       PRES   REMARKS
PARIS          CLOUDY    50  46  87 CALM      29.92F
SULPHUR SPRNGS FOG       51  51 100 CALM      29.94F VSB 1
MOUNT PLEASANT CLOUDY    51  51 100 CALM      29.91F
GILMER         CLOUDY    51  51 100 CALM      29.90F FOG
MINEOLA        CLOUDY    52  50  93 CALM      29.91F FOG
TYLER          FOG       52  52 100 NW5       29.89F VSB 3/4
LONGVIEW       CLOUDY    53  53 100 N3        29.88F
MARSHALL       CLOUDY    53  51  94 CALM      29.91F VSB 3/4
ATHENS         CLOUDY    50  50 100 CALM      29.91S FOG
PALESTINE      FOG       51  51 100 W3        29.93F VSB 3/4
JACKSONVILLE   FOG       52  52 100 NW5       29.91F VSB 1/2
HENDERSON      CLOUDY   N/A N/A N/A CALM      29.90F FOG
CENTER         CLOUDY    58  57  96 N5        29.88F FOG
NACOGDOCHES    CLOUDY    54  54 100 CALM      29.88F
LUFKIN         FOG       54  54 100 CALM      29.88F VSB 1/4
$$

SUPPLEMENTAL OBSERVATIONS (CENTRAL)

CITY           SKY/WX    TMP DP  RH WIND       PRES   REMARKS
$$

SUPPLEMENTAL OBSERVATIONS (WEST)

CITY           SKY/WX    TMP DP  RH WIND       PRES   REMARKS
$$

SUPPLEMENTAL OBSERVATIONS (EAST)

CITY           SKY/WX    TMP DP  RH WIND       PRES   REMARKS
$$

SUPPLEMENTAL OBSERVATIONS ARE A COLLECTION OF AUTOMATED INSTRUMENTS
THAT ARE MAINTAINED BY A VARIETY OF FEDERAL AND STATE AGENCIES.
CERTAIN ELEMENTS...SUCH AS HUMIDITY VALUES AND SUSTAINED WIND
SPEEDS...MAY BE APPROXIMATED.




USA.gov is the U.S. government's official web portal to all federal, state and local government web resources and services.